Location: Kam�li
(14.6864°N, 3.1482°W)
Time: 02:26:35
(UTC+00:00)

Milstar 3 - Pass Details

Date: 29 October 2020
Orbit: 1101 x 5144 km, 28.2° (Epoch: 28 November)

Event Time Altitude Azimuth Distance (km) Brightness Sun altitude
Rises 18:58:10 0° 295° (WNW) 4,226 6.7 -18.1°
Reaches altitude 10° 19:01:36 10° 307° (NW) 3,052 5.7 -18.9°
Maximum altitude 19:07:22 28° 6° (N) 1,935 3.9 -20.3°
Enters shadow 19:09:43 23° 38° (NE) 2,188 3.9 -20.9°
